カタログに戻る

CZ-6A DEB

運用中PO
NORAD 60965·DEBRIS·🇨🇳 China

打ち上げ Aug 6, 2024 から Taiyuan Satellite Launch Center

Loading…

次のパス (今後24時間)

TLE

最新Source: Space-Track

元期: Sep 14, 2026, 06:05 UTC

1 60965U 24140LQ  26257.25355968  .00003515  00000-0  28898-3 0  9994
2 60965  88.9234 247.9176 0168605 186.4034 173.5044 14.88345530111637

AllMySatでCZ-6A DEBをリアルタイム追跡

Download on the App Store